sat.trackr.live / text

‹ back to catalog

STARLINK-32186

NORAD 60412 · 2024-141Q

PAYLOAD ACTIVE UNKNOWN

§ Identity

Operator
Country
US
Launch date
2024-08-10
Launch site
AFETR
Launch vehicle
Mass (kg)
RCS (m²)

Purposes: comms

External: N2YO · Heavens-Above · Gunter

§ Orbital elements

Epoch: 2026-09-21T17:12:11.051712Z

Period
93.85 min
Inclination
53.1606°
Eccentricity
0.0001318
Mean motion
15.34390426 rev/d
Perigee alt
461.8 km
Apogee alt
463.6 km
Semi-major
6,840.9 km
B*
1.0911e-5
RAAN
47.7809°
Arg perigee
62.7864°
Mean anomaly
297.3273°
Rev number
11,959

§ Raw data

STARLINK-321861 60412U 24141Q   26264.71679458 -.00000008  00000+0  10911-4 0  99962 60412  53.1606  47.7809 0001318  62.7864 297.3273 15.34390426119592

JSON: /api/v1/satellites/60412 · /tle

For live sub-satellite position, see the globe view (requires WebGL).

§ Visibility from observer

Set your observer location to see the next 7 days of passes ≥ 10°. The values pass through the URL so the page stays shareable.

No JS? Fill the form by hand. The geolocation button needs JavaScript.